Location: Julian California
(33.0790°N, 116.6010°W)
Time: 01:52:58
(UTC-07:00)

ARGOS - Pass Details

Date: 19 May 2017
Orbit: 820 x 835 km, 98.6° (Epoch: 28 June)

Event Time Altitude Azimuth Distance (km) Brightness Sun altitude
Exits shadow 22:10:27 66° 186° (S) 900 3.1 -25.6°
Maximum altitude 22:11:13 82° 256° (WSW) 840 3.1 -25.7°
Drops below altitude 10° 22:16:39 10° 345° (NNW) 2,442 6.4 -26.4°
Sets 22:19:01 0° 347° (NNW) 3,381 7.3 -26.8°
